Terug naar catalogus

STARLINK-31623

ActiefCommunicatieVLEO
NORAD 59272·PAYLOAD·🇺🇸 United States

Gelanceerd Mar 19, 2024 vanaf Vandenberg Space Force Base

Loading…

Volgende Passages (komende 24 uur)

TLE

VersSource: CelesTrak SupGP

Epoch: Sep 15, 2026, 02:16 UTC

1 59272C 24050U   26258.09493056  .00024537  00000+0  72475-3 0  2581
2 59272  53.1596  18.6263 0001027  98.9616 277.9208 15.34387897    12

Volg STARLINK-31623 in realtime met AllMySat

Download on the App Store